Las Cruces, NM

7:43 PM MST on January 20, 2017 (GMT -0700)
Las Cruces International

Weather History for KLRU - August, 2013

Change the Weather History Date:

Thursday, August 8, 2013

  Actual Average Record
Temperature  
Mean Temperature 78 °F -  
Max Temperature 92 °F 89 °F 100 °F (2003)
Min Temperature 63 °F 68 °F 63 °F (2013)
Cooling Degree Days 12    
Growing Degree Days 28 (Base 50)    
Moisture  
Dew Point 47 °F    
Average Humidity 38    
Maximum Humidity 76    
Minimum Humidity 15    
Precipitation  
Precipitation 0.00 in - - ()
Sea Level Pressure  
Sea Level Pressure 30.07 in    
Wind  
Wind Speed 7 mph (WNW)    
Max Wind Speed 16 mph    
Max Gust Speed 22 mph    
Visibility 10 miles    
Events      
Averages and records for this station are not official NWS values.
T = Trace of Precipitation, MM = Missing Value Source: NWS Daily Summary

Daily Weather History Graph

Daily Weather History Graph

Search for Another Location

Airport or City:

Trip Planner

Search our weather history database for the weather conditions in past years. The results will help you decide how hot, cold, wet, or windy it might be!

Date:

Astronomy

Aug. 08, 2013 Rise Set
Actual Time 6:27 AM MDT 7:58 PM MDT
Civil Twilight 6:01 AM MDT 8:24 PM MDT
Nautical Twilight 5:29 AM MDT 8:56 PM MDT
Astronomical Twilight 4:56 AM MDT 9:29 PM MDT
Moon 8:07 AM MDT (8/8) 8:50 PM MDT (8/8)
Length of Visible Light 14h 23m
Length of Day
13h 31m
Waxing Crescent, 3% of the Moon is Illuminated
Aug 8
Waxing Crescent
Aug 14
First Quarter
Aug 20
Full
Aug 28
Last Quarter
Sep 5
New

Hourly Weather History & Observations

Time (MDT) Temp. Dew Point Humidity Pressure Visibility Wind Dir Wind Speed Gust Speed Precip Events Conditions
12:15 AM 73.4 °F 52.7 °F 48% 30.08 in 10.0 mi WNW 6.9 mph - N/A   Clear
12:35 AM 74.3 °F 52.3 °F 46% 30.08 in 10.0 mi NW 8.1 mph - N/A   Clear
12:55 AM 74.3 °F 52.2 °F 46% 30.08 in 10.0 mi WNW 5.8 mph - N/A   Clear
1:15 AM 72.5 °F 53.6 °F 51% 30.08 in 10.0 mi WNW 5.8 mph - N/A   Clear
1:35 AM 71.4 °F 54.0 °F 54% 30.08 in 10.0 mi West 8.1 mph - N/A   Clear
1:55 AM 70.2 °F 55.4 °F 59% 30.08 in 10.0 mi WNW 5.8 mph - N/A   Clear
2:15 AM 69.6 °F 55.4 °F 61% 30.07 in 10.0 mi WNW 5.8 mph - N/A   Clear
2:35 AM 69.6 °F 55.0 °F 60% 30.07 in 10.0 mi WNW 5.8 mph - N/A   Clear
2:55 AM 69.3 °F 54.0 °F 58% 30.07 in 10.0 mi WNW 4.6 mph - N/A   Clear
3:15 AM 67.1 °F 53.1 °F 61% 30.07 in 10.0 mi NNW 5.8 mph - N/A   Clear
3:35 AM 66.7 °F 52.9 °F 61% 30.06 in 10.0 mi NNW 4.6 mph - N/A   Clear
3:55 AM 67.6 °F 53.1 °F 59% 30.07 in 10.0 mi NNW 4.6 mph - N/A   Clear
4:15 AM 67.1 °F 53.6 °F 62% 30.07 in 10.0 mi North 4.6 mph - N/A   Clear
4:35 AM 66.9 °F 54.9 °F 65% 30.07 in 10.0 mi Calm Calm - N/A   Clear
4:55 AM 64.9 °F 54.3 °F 68% 30.07 in 10.0 mi Calm Calm - N/A   Clear
5:15 AM 64.6 °F 54.9 °F 71% 30.08 in 10.0 mi NNW 3.5 mph - N/A   Clear
5:35 AM 63.5 °F 54.3 °F 72% 30.08 in 10.0 mi NW 4.6 mph - N/A   Clear
5:55 AM 63.7 °F 55.0 °F 73% 30.08 in 10.0 mi NW 4.6 mph - N/A   Clear
6:15 AM 63.0 °F 55.4 °F 76% 30.09 in 10.0 mi NW 5.8 mph - N/A   Clear
6:35 AM 63.3 °F 55.8 °F 76% 30.09 in 10.0 mi NW 5.8 mph - N/A   Clear
6:55 AM 64.2 °F 55.9 °F 74% 30.10 in 10.0 mi NW 5.8 mph - N/A   Clear
7:15 AM 66.0 °F 57.2 °F 73% 30.10 in 10.0 mi NNW 4.6 mph - N/A   Clear
7:35 AM 69.1 °F 58.1 °F 68% 30.11 in 10.0 mi Calm Calm - N/A   Clear
7:55 AM 70.7 °F 58.6 °F 66% 30.12 in 10.0 mi West 6.9 mph - N/A   Clear
8:15 AM 71.8 °F 58.3 °F 62% 30.12 in 10.0 mi NW 4.6 mph - N/A   Clear
8:35 AM 73.6 °F 58.6 °F 59% 30.12 in 10.0 mi North 3.5 mph - N/A   Clear
8:55 AM 74.7 °F 56.5 °F 53% 30.12 in 10.0 mi Calm Calm - N/A   Clear
9:15 AM 76.3 °F 54.5 °F 47% 30.12 in 10.0 mi Calm Calm - N/A   Clear
9:35 AM 78.1 °F 52.7 °F 41% 30.13 in 10.0 mi NNW 4.6 mph - N/A   Clear
9:55 AM 79.0 °F 52.2 °F 39% 30.13 in 10.0 mi North 3.5 mph - N/A   Clear
10:15 AM 80.2 °F 52.5 °F 38% 30.13 in 10.0 mi Calm Calm - N/A   Clear
10:35 AM 82.0 °F 51.6 °F 35% 30.14 in 10.0 mi NNE 3.5 mph - N/A   Clear
10:55 AM 82.2 °F 50.7 °F 33% 30.13 in 10.0 mi NE 4.6 mph - N/A   Clear
11:15 AM 85.1 °F 47.3 °F 27% 30.12 in 10.0 mi NNW 11.5 mph - N/A   Clear
11:35 AM 87.1 °F 45.1 °F 23% 30.12 in 10.0 mi North 12.7 mph 16.1 mph N/A   Clear
11:55 AM 86.7 °F 47.1 °F 25% 30.11 in 10.0 mi North 6.9 mph - N/A   Clear
12:15 PM 86.5 °F 46.0 °F 24% 30.10 in 10.0 mi NNE 3.5 mph - N/A   Clear
12:35 PM 88.3 °F 42.1 °F 20% 30.10 in 10.0 mi NW 6.9 mph - N/A   Clear
12:55 PM 89.2 °F 42.6 °F 20% 30.10 in 10.0 mi NW 11.5 mph 19.6 mph N/A   Clear
1:15 PM 89.1 °F 43.7 °F 21% 30.09 in 10.0 mi NNE 6.9 mph - N/A   Clear
1:35 PM 89.1 °F 42.8 °F 20% 30.09 in 10.0 mi West 8.1 mph 16.1 mph N/A   Scattered Clouds
1:55 PM 89.1 °F 42.6 °F 20% 30.08 in 10.0 mi NNW 10.4 mph 17.3 mph N/A   Mostly Cloudy
2:15 PM 91.2 °F 40.3 °F 17% 30.08 in 10.0 mi WNW 12.7 mph 21.9 mph N/A   Scattered Clouds
2:35 PM 90.3 °F 39.6 °F 17% 30.07 in 10.0 mi NW 10.4 mph - N/A   Clear
2:55 PM 90.9 °F 41.0 °F 18% 30.06 in 10.0 mi WNW 4.6 mph - N/A   Clear
3:15 PM 90.7 °F 42.8 °F 19% 30.06 in 10.0 mi NW 10.4 mph 21.9 mph N/A   Mostly Cloudy
3:35 PM 90.3 °F 42.4 °F 19% 30.05 in 10.0 mi NW 6.9 mph 10.4 mph N/A   Mostly Cloudy
3:55 PM 92.7 °F 42.6 °F 18% 30.04 in 10.0 mi SW 13.8 mph 18.4 mph N/A   Mostly Cloudy
4:15 PM 92.8 °F 41.7 °F 17% 30.03 in 10.0 mi WSW 10.4 mph - N/A   Scattered Clouds
4:35 PM 90.3 °F 42.1 °F 19% 30.03 in 10.0 mi SW 5.8 mph - N/A   Scattered Clouds
4:55 PM 92.8 °F 40.5 °F 16% 30.03 in 10.0 mi WSW 4.6 mph - N/A   Clear
5:15 PM 91.9 °F 41.5 °F 17% 30.03 in 10.0 mi WSW 11.5 mph 17.3 mph N/A   Clear
5:35 PM 92.3 °F 41.0 °F 17% 30.02 in 10.0 mi South 4.6 mph - N/A   Clear
5:55 PM 92.3 °F 38.8 °F 15% 30.01 in 10.0 mi West 5.8 mph - N/A   Clear
6:15 PM 92.5 °F 38.8 °F 15% 30.00 in 10.0 mi WSW 12.7 mph - N/A   Scattered Clouds
6:35 PM 91.9 °F 38.8 °F 16% 30.00 in 10.0 mi West 10.4 mph - N/A   Clear
6:55 PM 91.0 °F 38.8 °F 16% 30.00 in 10.0 mi West 10.4 mph 17.3 mph N/A   Clear
7:15 PM 90.1 °F 40.1 °F 17% 30.00 in 10.0 mi WSW 16.1 mph 20.7 mph N/A   Clear
7:35 PM 88.7 °F 40.1 °F 18% 30.01 in 10.0 mi West 16.1 mph 20.7 mph N/A   Clear
7:55 PM 87.4 °F 40.1 °F 19% 30.01 in 10.0 mi West 11.5 mph - N/A   Clear
8:15 PM 86.0 °F 40.1 °F 20% 30.01 in 10.0 mi West 10.4 mph - N/A   Clear
8:35 PM 84.6 °F 39.9 °F 21% 30.02 in 10.0 mi West 9.2 mph - N/A   Clear
8:55 PM 83.3 °F 39.2 °F 21% 30.02 in 10.0 mi West 9.2 mph - N/A   Clear
9:15 PM 82.0 °F 39.4 °F 22% 30.03 in 10.0 mi West 9.2 mph - N/A   Clear
9:35 PM 81.5 °F 39.4 °F 22% 30.04 in 10.0 mi West 9.2 mph - N/A   Clear
9:55 PM 79.9 °F 39.6 °F 24% 30.04 in 10.0 mi West 10.4 mph - N/A   Clear
10:15 PM 78.6 °F 40.1 °F 25% 30.05 in 10.0 mi West 9.2 mph - N/A   Clear
10:35 PM 77.4 °F 40.5 °F 27% 30.06 in 10.0 mi WSW 8.1 mph - N/A   Clear
10:55 PM 77.2 °F 40.5 °F 27% 30.06 in 10.0 mi West 8.1 mph - N/A   Clear
11:15 PM 75.0 °F 41.0 °F 29% 30.07 in 10.0 mi WSW 6.9 mph - N/A   Clear
11:35 PM 73.4 °F 40.3 °F 30% 30.07 in 10.0 mi West 9.2 mph - N/A   Clear
11:55 PM 73.4 °F 40.1 °F 30% 30.07 in 10.0 mi WSW 8.1 mph - N/A   Clear